Regional Weather Roundup
Issued by NWS Green Bay, WI

Home | Current Version | Previous Version | Graphics & Text | Print | Product List | Glossary Off
Versions: 1 2 3 4 5 6 7 8 9 10 11 12 13 14 15 16 17 18 19 20 21 22 23 24 25 26 27 28 29 30 31 32 33 34 35 36 37 38 39 40 41 42 43 44 45 46 47 48 49 50

000
ASUS43 KGRB 240110
RWRGRB

NORTH-CENTRAL AND NORTHEAST WISCONSIN REGIONAL WEATHER ROUNDUP
NATIONAL WEATHER SERVICE GREEN BAY WI
800 PM CDT TUE SEP 23 2014

WIZ005-009-010>012-018-019-240200-
NORTH CENTRAL WISCONSIN

CITY           SKY/WX    TMP DP  RH WIND       PRES   REMARKS
IRONWOOD       CLEAR     55  52  88 S3        30.18R
MANITOWISH WTR CLEAR     52  50  94 SE3       30.23R
ARBOR VITAE    CLEAR     58  52  81 CALM      30.24R
EAGLE RIVER    CLEAR     54  52  95 CALM      30.24R
LAND O LAKES   CLEAR     52  51  96 CALM      30.25R
RHINELANDER    CLEAR     53  50  89 CALM      30.26R
PHILLIPS       PTCLDY    58  52  80 CALM      30.22R
ANTIGO         CLEAR     55  51  86 SE3       30.27R
TOMAHAWK       PTCLDY    55  51  85 CALM      30.25R
MERRILL        PTCLDY    54  52  92 CALM      30.25R
$$

WIZ013-073-240200-
NORTHEAST WISCONSIN

CITY           SKY/WX    TMP DP  RH WIND       PRES   REMARKS
IRON MOUNTAIN  CLEAR     62  54  74 SE5       30.24R
MARINETTE      CLEAR     61  52  72 S7        30.25R
OCONTO         CLEAR     61  57  87 S6        30.26R
$$

WIZ017-030-035>037-045-240200-
CENTRAL WISCONSIN

CITY           SKY/WX    TMP DP  RH WIND       PRES   REMARKS
MEDFORD        MOCLDY    56  51  85 S3        30.24R
WAUSAU         PTCLDY    60  53  77 CALM      30.23R
MOSINEE        CLEAR     61  54  77 S3        30.26R
MARSHFIELD     MOCLDY    59  52  77 S5        30.24R
WISC RAPIDS    MOCLDY    58  53  84 CALM      30.26R
STEVENS POINT  PTCLDY    57  52  83 CALM      30.26R
WAUPACA        CLEAR     59  56  87 CALM      30.25R
SHAWANO        CLEAR     65  54  68 CALM      30.26R
CLINTONVILLE   CLEAR     59  54  82 CALM      30.25R
$$

WIZ038-039-048-051-240200-
FOX VALLEY

CITY           SKY/WX    TMP DP  RH WIND       PRES   REMARKS
NWS GREEN BAY  CLEAR     59  55  87 SE5       30.27R
APPLETON       PTCLDY    64  52  63 CALM      30.26S
OSHKOSH        CLEAR     56  52  86 S3        30.25R
FOND DU LAC    CLEAR     59  53  80 S3        30.26R
$$

WIZ022-050-052-240200-
EAST CENTRAL WISCONSIN

CITY           SKY/WX    TMP DP  RH WIND       PRES   REMARKS
STURGEON BAY   CLEAR     57  50  77 S10       30.28R
MANITOWOC      CLEAR     58  56  93 SE5       30.29R
SHEBOYGAN      CLEAR     56  50  80 CALM      30.28R
$$

LMZ563-521-522-541>543-240200-
LAKESHORE

STATION/POSITION TIME  TEMP    WIND        PRES    VSBY  WAVE
                       AIR SEA DIR/SP/G                  HT/PER
                 (UTC) (F)     (DEG/KT/KT) (MB)    (MI)  (FT/S)
SHEBOYGAN LKSHOR 0100   60 53  180/  9/  9 1025.8R
KEWAUNEE LKSHORE 0100   58     180/  6/  8 1024.2S
ALGOMA MARINA    0000          230/  8/  9   N/A
NORTHPORT PIER   0100   59     170/  5/  9 1024.7R
N MID LAKE BUOY  0100   59 58  200/ 10/ 12 1025.4R         1/ 4
SISTER BAY LKSHO 0100          170/  9/ 14   N/A
STURGEON BAY CG  0000   56 52  200/  8     1025.3      6   1
CHAMBERS ISLAND  0100   60     140/  4/  7 1024.7S
MENOMINEE LKSHOR 0100          170/  9/ 11   N/A
$$


USA.gov is the U.S. government's official web portal to all federal, state and local government web resources and services.